Regional Weather Roundup
Issued by NWS Goodland, KS

Home | Current Version | Previous Version | Text Only | Print | Product List | Glossary Off
Versions: 1 2 3 4 5 6 7 8 9 10 11 12 13 14 15 16 17 18 19 20 21 22 23 24 25 26 27 28 29 30 31 32 33 34 35 36 37 38 39 40 41 42 43 44 45 46 47 48 49 50

000
ASUS43 KGLD 272359
RWRGLD

GOODLAND FORECAST AREA HOURLY WEATHER ROUNDUP
NATIONAL WEATHER SERVICE GOODLAND KS
600 PM MDT WED AUG 27 2014

...OFFICIAL OBSERVATIONS...

CITY           SKY/WX    TMP DP  RH WIND       PRES   REMARKS
GOODLAND KS    PTSUNNY   81  62  52 S6        30.00F
HILL CITY KS   TSTM      71  68  90 E16       29.98F
IMPERIAL NEB   PTSUNNY   79  64  60 E15G22    29.99S
MCCOOK NEB     RAIN      71  66  84 SE13G25   30.02S
AKRON CO       CLOUDY    77  59  53 NW8       30.03S
BURLINGTON CO  SUNNY     80  61  52 SE8       30.01F
LIMON CO       MOSUNNY   77  52  41 E5        30.06F
$$

...UNOFFICIAL OBSERVATIONS...

CITY           SKY/WX    TMP DP  RH WIND       PRES   REMARKS
COLBY KS       CLOUDY    72  66  83 E16G23    30.02S
GOVE KS          N/A     75  32  20 CALM        N/A
NORTON KS      LGT RAIN  68  64  88 E10       30.02S
SHARON SPRINGS   N/A     82  65  55 SE9         N/A
WAKEENEY KS      N/A     73  68  83 MISG        N/A
KIT CARSON CO    N/A     84  58  40 MISG        N/A
YUMA CO          N/A     73  62  68 E12         N/A
$$


USA.gov is the U.S. government's official web portal to all federal, state and local government web resources and services.